DW3331 Weather Reports


Display with metric or nautical units.
time (UTC)temp
F
wind
direction
speed
MPH
gust
MPH
rain 1hr
in
rain 24hr
in
rain mn
in
humidity
%
barometer
mb
20260504022504 46 0 0.0 0.0 0.00 0.00 0.00 61 1012.5
20260504022004 47 0 0.0 0.0 0.00 0.00 0.00 61 1012.5
20260504021525 47 0 0.0 0.0 0.00 0.00 0.00 60 1012.6
20260504021004 47 0 0.0 0.0 0.00 0.00 0.00 59 1012.5
20260504020504 48 0 0.0 0.0 0.00 0.00 0.00 57 1012.4
20260504020004 48 260 1.0 1.0 0.00 0.00 0.00 57 1012.5
20260504015505 48 260 0.0 1.0 0.00 0.00 0.00 57 1012.4
20260504015004 49 261 0.0 1.0 0.00 0.00 0.00 56 1012.3
20260504014527 49 259 0.0 1.0 0.00 0.00 0.00 55 1012.4
20260504014004 49 263 0.0 2.0 0.00 0.00 0.00 54 1012.3
20260504013505 50 263 0.0 2.0 0.00 0.00 0.00 54 1012.3
20260504013005 50 261 0.0 1.0 0.00 0.00 0.00 53 1012.2
20260504012504 50 252 0.0 1.0 0.00 0.00 0.00 52 1012.1
20260504012026 51 247 0.0 3.0 0.00 0.00 0.00 52 1012.1
20260504011505 51 241 0.0 3.0 0.00 0.00 0.00 52 1012.0
20260504011025 51 237 0.0 3.0 0.00 0.00 0.00 51 1012.1
20260504010504 51 234 1.0 3.0 0.00 0.00 0.00 50 1012.1
20260504010005 52 243 1.0 3.0 0.00 0.00 0.00 50 1012.1
20260504005505 52 247 0.0 3.0 0.00 0.00 0.00 49 1012.1
20260504005004 52 248 0.0 2.0 0.00 0.00 0.00 49 1012.1
20260504004505 52 248 0.0 2.0 0.00 0.00 0.00 48 1012.0
20260504004005 53 252 0.0 2.0 0.00 0.00 0.00 48 1012.0
20260504003504 53 254 0.0 1.0 0.00 0.00 0.00 47 1011.9
20260504003004 53 254 0.0 1.0 0.00 0.00 0.00 47 1011.9
20260504002505 54 253 1.0 2.0 0.00 0.00 0.00 46 1011.9
20260504002004 54 258 1.0 3.0 0.00 0.00 0.00 46 1011.9
20260504001504 54 259 1.0 3.0 0.00 0.00 0.00 45 1011.9
20260504001004 54 258 1.0 3.0 0.00 0.00 0.00 45 1011.9
20260504000504 55 249 2.0 5.0 0.00 0.00 0.00 45 1011.8
20260504000025 55 244 3.0 6.0 0.00 0.00 0.00 44 1011.8
20260503235504 55 248 3.0 6.0 0.00 0.00 0.00 44 1011.8
20260503235025 55 247 3.0 6.0 0.00 0.00 0.00 44 1011.8
20260503234526 55 243 3.0 6.0 0.00 0.00 0.00 44 1011.8
20260503234004 55 243 4.0 6.0 0.00 0.00 0.00 42 1011.8
20260503233505 56 247 3.0 7.0 0.00 0.00 0.00 42 1011.8
20260503233005 56 247 3.0 7.0 0.00 0.00 0.00 42 1011.9
20260503232504 56 246 3.0 7.0 0.00 0.00 0.00 42 1011.8
20260503232025 56 244 4.0 10.0 0.00 0.00 0.00 42 1011.9
20260503231504 56 256 4.0 11.0 0.00 0.00 0.00 42 1011.9
20260503231005 56 253 4.0 11.0 0.00 0.00 0.00 41 1011.9
20260503230505 56 241 4.0 7.0 0.00 0.00 0.00 42 1011.9
20260503230005 56 251 5.0 8.0 0.00 0.00 0.00 41 1011.9
20260503225505 56 247 5.0 14.0 0.00 0.00 0.00 41 1011.9
20260503225005 56 239 5.0 14.0 0.00 0.00 0.00 40 1011.9
20260503224504 56 243 4.0 10.0 0.00 0.00 0.00 41 1011.9
20260503224005 56 249 4.0 10.0 0.00 0.00 0.00 41 1011.9
20260503223504 57 250 5.0 10.0 0.00 0.00 0.00 41 1011.9
20260503223026 57 242 5.0 12.0 0.00 0.00 0.00 41 1011.8
20260503222505 57 239 5.0 12.0 0.00 0.00 0.00 41 1011.8
20260503222004 57 242 5.0 17.0 0.00 0.00 0.00 41 1011.8
20260503221504 57 258 5.0 17.0 0.00 0.00 0.00 42 1011.9
20260503221005 57 253 5.0 13.0 0.00 0.00 0.00 42 1011.8
20260503220504 57 242 6.0 13.0 0.00 0.00 0.00 41 1011.9
20260503220004 57 254 6.0 14.0 0.00 0.00 0.00 41 1011.9
20260503215504 57 261 4.0 14.0 0.00 0.00 0.00 40 1011.8
20260503215004 57 262 3.0 11.0 0.00 0.00 0.00 42 1011.8
20260503214504 57 240 4.0 9.0 0.00 0.00 0.00 44 1011.9
20260503214026 56 241 4.0 9.0 0.00 0.00 0.00 42 1011.9
20260503213505 56 256 5.0 12.0 0.00 0.00 0.00 42 1011.9
20260503213026 57 255 6.0 12.0 0.00 0.00 0.00 42 1011.9
20260503212505 57 253 6.0 10.0 0.00 0.00 0.00 41 1011.9
20260503212005 57 263 5.0 11.0 0.00 0.00 0.00 41 1011.9
20260503211505 57 271 4.0 11.0 0.00 0.00 0.00 41 1012.0
20260503211005 57 267 4.0 7.0 0.00 0.00 0.00 42 1011.9
20260503210505 57 273 4.0 9.0 0.00 0.00 0.00 42 1011.9
20260503210005 58 262 4.0 9.0 0.00 0.00 0.00 41 1011.9
20260503205505 58 259 5.0 11.0 0.00 0.00 0.00 43 1012.0
20260503205025 57 266 6.0 14.0 0.00 0.00 0.00 40 1011.9
20260503204505 57 266 6.0 14.0 0.00 0.00 0.00 41 1012.0
20260503204026 57 276 6.0 17.0 0.00 0.00 0.00 42 1012.0
20260503203504 57 273 6.0 17.0 0.00 0.00 0.00 40 1012.0
20260503203004 57 253 6.0 14.0 0.00 0.00 0.00 41 1012.0
20260503202504 58 249 5.0 14.0 0.00 0.00 0.00 44 1012.1
20260503202005 58 244 4.0 13.0 0.00 0.00 0.00 42 1012.2
20260503201504 58 254 5.0 11.0 0.00 0.00 0.00 43 1012.3
20260503201004 58 268 5.0 11.0 0.00 0.00 0.00 44 1012.3
20260503200525 58 263 5.0 11.0 0.00 0.00 0.00 40 1012.4
20260503200004 58 256 5.0 13.0 0.00 0.00 0.00 41 1012.5
20260503195505 58 252 5.0 13.0 0.00 0.00 0.00 41 1012.4
20260503195005 60 242 5.0 11.0 0.00 0.00 0.00 42 1012.5
20260503194504 59 245 4.0 11.0 0.00 0.00 0.00 43 1012.6
20260503194004 58 245 4.0 11.0 0.00 0.00 0.00 44 1012.7
20260503193504 58 241 5.0 10.0 0.00 0.00 0.00 41 1012.7
20260503193005 58 272 5.0 12.0 0.00 0.00 0.00 40 1012.7
20260503192504 58 265 5.0 12.0 0.00 0.00 0.00 41 1012.8
20260503192005 58 245 5.0 11.0 0.00 0.00 0.00 44 1013.0
20260503191504 58 265 6.0 12.0 0.00 0.00 0.00 39 1013.0
20260503191005 58 276 6.0 12.0 0.00 0.00 0.00 43 1013.1
20260503190504 58 271 5.0 11.0 0.00 0.00 0.00 43 1013.1
20260503190005 58 267 5.0 11.0 0.00 0.00 0.00 40 1013.2
20260503185504 58 265 5.0 11.0 0.00 0.00 0.00 45 1013.2
20260503185026 57 264 7.0 12.0 0.00 0.00 0.00 45 1013.4
20260503184504 56 279 8.0 14.0 0.00 0.00 0.00 44 1013.5
20260503184004 57 281 6.0 15.0 0.00 0.00 0.00 40 1013.6
20260503183505 56 271 6.0 15.0 0.00 0.00 0.00 44 1013.6
20260503183005 56 267 6.0 13.0 0.00 0.00 0.00 44 1013.6
20260503182526 56 261 6.0 13.0 0.00 0.00 0.00 43 1013.7
20260503182006 56 251 6.0 13.0 0.00 0.00 0.00 44 1013.7
20260503181505 55 237 6.0 13.0 0.00 0.00 0.00 45 1013.8
20260503181005 56 233 5.0 13.0 0.00 0.00 0.00 45 1013.7
20260503180505 56 252 6.0 11.0 0.00 0.00 0.00 43 1013.7
20260503180005 57 264 6.0 11.0 0.00 0.00 0.00 46 1013.8
20260503175525 56 274 7.0 16.0 0.00 0.00 0.00 43 1013.8
20260503175025 56 289 7.0 16.0 0.00 0.00 0.00 40 1013.8
20260503174525 56 297 6.0 15.0 0.00 0.00 0.00 44 1013.9
20260503174004 56 286 5.0 15.0 0.00 0.00 0.00 40 1013.9
20260503173526 56 272 4.0 13.0 0.00 0.00 0.00 43 1014.0
20260503173005 56 256 4.0 10.0 0.00 0.00 0.00 47 1013.9
20260503172504 54 237 5.0 12.0 0.00 0.00 0.00 42 1014.0
20260503172004 54 229 4.0 15.0 0.00 0.00 0.00 48 1014.1
20260503171504 54 240 4.0 15.0 0.00 0.00 0.00 46 1014.2
20260503171005 53 266 5.0 10.0 0.00 0.00 0.00 47 1014.2
20260503170504 53 268 6.0 12.0 0.00 0.00 0.00 44 1014.2
20260503151005 50 254 4.0 13.0 0.00 0.00 0.00 51 1015.1
20260503150504 50 248 4.0 13.0 0.00 0.00 0.00 50 1015.2
20260503131026 42 215 4.0 8.0 0.00 0.00 0.00 80 1015.6
20260503130505 41 215 2.0 8.0 0.00 0.00 0.00 82 1015.6
20260503110504 28 0 0.0 0.0 0.00 0.00 0.00 91 1015.3
20260503090504 29 0 0.0 0.0 0.00 0.00 0.00 88 1014.5
20260503081504 30 0 0.0 0.0 0.00 0.00 0.00 85 1014.3
20260503081004 30 0 0.0 0.0 0.00 0.00 0.00 85 1014.4
20260503080504 30 0 0.0 0.0 0.00 0.00 0.00 85 1014.4
20260503072526 32 0 0.0 0.0 0.00 0.00 0.00 82 1014.2
20260503072004 32 0 0.0 0.0 0.00 0.00 0.00 82 1014.2
20260503071504 33 0 0.0 0.0 0.00 0.00 0.00 82 1014.1
20260503071025 33 0 0.0 0.0 0.00 0.00 0.00 81 1014.1
20260503070504 33 0 0.0 0.0 0.00 0.00 0.00 81 1014.1
20260503055025 37 281 1.0 2.0 0.00 0.00 0.00 74 1014.2
20260503054525 37 280 1.0 2.0 0.00 0.00 0.00 74 1014.2
20260503054004 38 276 1.0 2.0 0.00 0.00 0.00 74 1014.2
20260503053505 38 272 1.0 3.0 0.00 0.00 0.00 74 1014.3
20260503053004 38 274 0.0 3.0 0.00 0.00 0.00 74 1014.3
20260503052504 38 282 0.0 2.0 0.00 0.00 0.00 74 1014.3
20260503052004 38 0 0.0 0.0 0.00 0.00 0.00 74 1014.3
20260503051504 38 0 0.0 0.0 0.00 0.00 0.00 74 1014.3
20260503051004 38 264 0.0 1.0 0.00 0.00 0.00 74 1014.3
20260503050504 38 263 1.0 1.0 0.00 0.00 0.00 74 1014.4
20260503050005 38 265 1.0 2.0 0.00 0.00 0.00 73 1014.4
20260503045505 38 272 1.0 4.0 0.00 0.00 0.00 73 1014.5
20260503045005 38 275 1.0 4.0 0.00 0.00 0.00 73 1014.5
20260503044504 38 277 0.0 3.0 0.00 0.00 0.00 73 1014.5
20260503044004 38 278 0.0 3.0 0.00 0.00 0.00 72 1014.4
20260503043504 39 0 0.0 0.0 0.00 0.00 0.00 72 1014.5
20260503043005 39 272 0.0 2.0 0.00 0.00 0.00 72 1014.4
20260503042504 39 272 1.0 2.0 0.00 0.00 0.00 72 1014.5
20260503042004 39 286 1.0 2.0 0.00 0.00 0.00 71 1014.5
20260503041504 39 282 1.0 2.0 0.00 0.00 0.00 70 1014.4
20260503041004 39 277 2.0 2.0 0.00 0.00 0.00 70 1014.5
20260503040504 39 279 2.0 3.0 0.00 0.00 0.00 70 1014.5
20260503040029 39 284 2.0 3.0 0.00 0.00 0.00 70 1014.5
20260503035525 39 287 2.0 3.0 0.00 0.00 0.00 69 1014.5
20260503035004 39 283 1.0 5.0 0.00 0.00 0.00 69 1014.6
20260503034504 39 278 1.0 5.0 0.00 0.00 0.00 69 1014.5
20260503034005 39 278 1.0 4.0 0.00 0.00 0.00 70 1014.5
20260503033504 40 278 1.0 4.0 0.00 0.00 0.00 69 1014.5
20260503033005 40 281 2.0 4.0 0.00 0.00 0.00 69 1014.5
20260503032505 40 281 2.0 4.0 0.00 0.00 0.00 68 1014.5
20260503032004 40 278 2.0 3.0 0.00 0.00 0.00 68 1014.6
20260503031504 40 279 2.0 3.0 0.00 0.00 0.00 68 1014.6
20260503031004 40 279 2.0 3.0 0.00 0.00 0.00 68 1014.6
20260503030504 40 275 2.0 3.0 0.00 0.00 0.00 68 1014.6
20260503030025 40 276 2.0 3.0 0.00 0.00 0.00 67 1014.6
20260503025504 40 281 2.0 5.0 0.00 0.00 0.00 67 1014.6
20260503025004 40 282 2.0 5.0 0.00 0.00 0.00 67 1014.6
20260503024504 40 281 2.0 4.0 0.00 0.00 0.00 67 1014.7
20260503024005 40 279 2.0 3.0 0.00 0.00 0.00 67 1014.7
20260503023504 40 279 3.0 4.0 0.00 0.00 0.00 67 1014.8
20260503023025 40 283 3.0 4.0 0.00 0.00 0.00 66 1014.7